User: anonymous   Login
Location: Oshawa
(43.9000°N, 78.8670°W)
Time: 22:28:48
(UTC-04:00)
Language:

Iridium 46 - Orbit

View from above orbital plane
View from above orbital plane
View from above satellite
View from above satellite

Ground track
Ground track

The orbit data is extracted from the following two-line orbital elements,

1 24905U 97043C   17146.45562017 +.00000166 +00000-0 +52238-4 0  9999
2 24905 086.3987 264.4623 0002744 088.8425 271.3085 14.34214487034711
Epoch (UTC): 26 May 2017 10:56:05
Eccentricity: 0.0002744
inclination: 86.3987°
perigee height: 776 km
apogee height: 779 km
right ascension of ascending node: 264.4623°
argument of perigee: 88.8425°
revolutions per day: 14.34214487
mean anomaly at epoch: 271.3085°
orbit number at epoch: 3471

The dashed part of the orbit path shows where the satellite is in the earth's shadow,  

DLR